Kinloss, United Kingdom

6:34 AM GMT on November 23, 2017 (GMT +0000)
Kinloss Air Base

Weather History for EGQK - December, 2012

Change the Weather History Date:

Friday, December 21, 2012

  Actual Average Record
Temperature  
Mean Temperature 40 °F -  
Max Temperature 41 °F 43 °F 53 °F (2008)
Min Temperature 39 °F 33 °F 10 °F (2010)
Degree Days  
Heating Degree Days 25    
Moisture  
Dew Point 36 °F    
Average Humidity 84    
Maximum Humidity 93    
Minimum Humidity 72    
Precipitation  
Precipitation 0.16 in 0.07 in - ()
Sea Level Pressure  
Sea Level Pressure 29.84 in    
Wind  
Wind Speed 10 mph ()    
Max Wind Speed 16 mph    
Max Gust Speed -    
Visibility 7.0 miles    
Events Rain    
Averages and records for this station are not official NWS values.
T = Trace of Precipitation, MM = Missing Value Source: Averaged Metar Reports

Daily Weather History Graph

Daily Weather History Graph

Search for Another Location

Airport or City:

Trip Planner

Search our weather history database for the weather conditions in past years. The results will help you decide how hot, cold, wet, or windy it might be!

Date:

Astronomy

Dec. 21, 2012 Rise Set
Actual Time 8:56 AM GMT 3:29 PM GMT
Civil Twilight 8:05 AM GMT 4:20 PM GMT
Nautical Twilight 7:12 AM GMT 5:12 PM GMT
Astronomical Twilight 6:25 AM GMT 6:00 PM GMT
Moon 12:04 PM GMT (12/21) 1:27 AM GMT (12/21)
Length of Visible Light 8h 15m
Length of Day
6h 32m
Waxing Gibbous, 62% of the Moon is Illuminated
Dec 21
Waxing Gibbous
Dec 28
Full
Jan 5
Last Quarter
Jan 11
New
Jan 18
First Quarter

Hourly Weather History & Observations

Time (GMT) Temp. Windchill Dew Point Humidity Pressure Visibility Wind Dir Wind Speed Gust Speed Precip Events Conditions
12:50 AM 41.0 °F 33.1 °F 35.6 °F 81% 29.71 in 6.2 mi East 15.0 mph - N/A Rain Light Rain Showers
1:50 AM 41.0 °F 34.7 °F 37.4 °F 87% 29.74 in 6.2 mi East 10.4 mph - N/A Rain Light Rain
2:50 AM 42 °F - 36 °F 72% 29.77 in 14 mi East 9.2 mph - - Rain Light Rain
2:50 AM 42.8 °F 37.5 °F 35.6 °F 76% 29.74 in 6.2 mi East 9.2 mph - N/A Rain Light Rain
3:50 AM 41.0 °F 35.8 °F 37.4 °F 87% 29.77 in 6.2 mi East 8.1 mph - N/A Rain Light Rain
4:50 AM 41.0 °F 33.9 °F 35.6 °F 81% 29.77 in 6.2 mi ESE 12.7 mph - N/A Rain Light Rain
5:50 AM 40 °F - 37 °F 84% 29.79 in 9 mi East 9.2 mph - - Rain Light Rain
5:50 AM 41.0 °F 35.2 °F 37.4 °F 87% 29.77 in 6.2 mi East 9.2 mph - N/A Rain Light Rain
6:50 AM 41.0 °F 34.7 °F 37.4 °F 87% 29.80 in 6.2 mi East 10.4 mph - N/A Rain Light Rain
7:50 AM 39.2 °F 32.5 °F 35.6 °F 87% 29.80 in 6.2 mi East 10.4 mph - N/A Rain Light Rain
8:50 AM 39 °F - 36 °F 86% 29.85 in 7 mi East 8.1 mph - - Rain Rain
8:50 AM 39.2 °F 33.6 °F 35.6 °F 87% 29.83 in 6.2 mi East 8.1 mph - N/A Rain Rain
9:50 AM 39.2 °F 33.6 °F 35.6 °F 87% 29.86 in 6.2 mi East 8.1 mph - N/A Rain Light Rain
10:50 AM 41.0 °F 34.7 °F 35.6 °F 81% 29.86 in 6.2 mi East 10.4 mph - N/A Rain Light Rain
11:50 AM 40 °F - 37 °F 83% 29.89 in 7 mi East 8.1 mph - - Rain Light Rain
11:50 AM 39.2 °F 33.6 °F 37.4 °F 93% 29.89 in 6.2 mi East 8.1 mph - N/A Rain Light Rain
12:50 PM 41.0 °F 34.7 °F 37.4 °F 87% 29.89 in 6.2 mi ESE 10.4 mph - N/A Rain Light Rain
1:50 PM 41.0 °F 32.8 °F 35.6 °F 81% 29.86 in 6.2 mi East 16.1 mph - N/A Rain Light Rain
2:50 PM 40 °F - 36 °F 80% 29.89 in 16 mi East 12.7 mph - - Rain Light Rain
2:50 PM 39.2 °F 31.6 °F 35.6 °F 87% 29.89 in 6.2 mi East 12.7 mph - N/A Rain Light Rain
3:50 PM 39.2 °F 33.0 °F 35.6 °F 87% 29.89 in 6.2 mi ESE 9.2 mph - N/A   Overcast
4:50 PM 39.2 °F 30.8 °F 35.6 °F 87% 29.89 in 6.2 mi ESE 15.0 mph - N/A Rain Light Rain
5:50 PM 39 °F - 35 °F 80% 29.89 in 25 mi ESE 15.0 mph - - Rain Rain
5:50 PM 39.2 °F 30.8 °F 35.6 °F 87% 29.89 in 6.2 mi ESE 15.0 mph - N/A   Overcast
6:50 PM 39.2 °F 30.8 °F 35.6 °F 87% 29.89 in 6.2 mi ESE 15.0 mph - N/A Rain Light Rain Showers
7:50 PM 39.2 °F 30.5 °F 35.6 °F 87% 29.89 in 6.2 mi ESE 16.1 mph - N/A   Overcast
8:50 PM 39 °F - 35 °F 82% 29.90 in 25 mi East 10.4 mph - -   Overcast
8:50 PM 39.2 °F 32.5 °F 35.6 °F 87% 29.89 in 6.2 mi East 10.4 mph - N/A   Overcast
9:50 PM 39.2 °F 32.5 °F 35.6 °F 87% 29.89 in 6.2 mi East 10.4 mph - N/A   Mostly Cloudy
10:50 PM 41.0 °F 35.2 °F 35.6 °F 81% 29.86 in 6.2 mi East 9.2 mph - N/A   Mostly Cloudy
11:50 PM 41 °F - 35 °F 73% 29.86 in 34 mi East 9.2 mph - -   Mostly Cloudy
11:50 PM 41.0 °F 35.2 °F 35.6 °F 81% 29.86 in 6.2 mi East 9.2 mph - N/A   Mostly Cloudy